Location: Vihti�l�
(61.3833°N, 23.0667°E)
Time: 03:55:32
(UTC+00:00)

Cosmos 2227 Rocket - Pass Details

Date: 29 November 2020
Orbit: 837 x 847 km, 71.0° (Epoch: 19 January)

Event Time Altitude Azimuth Distance (km) Brightness Sun altitude
Exits shadow 03:57:22 38° 308° (NW) 1,274 2.7 -21.0°
Maximum altitude 03:58:26 42° 335° (NNW) 1,201 2.7 -20.9°
Drops below altitude 10° 04:03:48 10° 46° (NE) 2,476 5.1 -20.3°
Sets 04:06:25 0° 53° (NE) 3,414 6.0 -20.0°
